map of TSE home
TSE - Airport
Location
City:  Astana, Aqmola, Kazakhstan
Name:Astana International Airport
ICAO:UACC
IATA:TSE

Details
Type:Airport (Aerodrome, Airfield)
Use:Public/Civil, International (customs port of entry)
Latitude:5101'21"N (51.022500)
Longitude:7127'58"E (71.466111)
Elevation:1165 ft (355 m)
Variation:9.82E (WMM2015 magnetic declination)
0.05 annual change
Runways:1
Longest:11483 × 148 ft (3500 × 45 m), paved

Time
Time Zone:UTC+6
Local Time:

Weather
METAR:UACC 290700Z 34004MPS 270V020 9999 SCT043 BKN120 30/11 Q1012 R22/0///70 NOSIG RMK QFE727/0970
TAF:UACC 290500Z 2906/3006 27006MPS 9999 SCT040CB BKN100 TX30/2910Z TN17/2923Z
TEMPO 2906/2916 VRB16MPS 3000 TSRA SQ BKN020CB

Related Locations
Nearby:
Farthest:PNT: 10894 mi / 17532 km
Puerto Natales [Teniente Julio Gallardo], MA, CL

Find:

   beyond  
but within

Other Information
Maps:
NOTAMs:
Links:
Sources:

  
flag of Kazakhstan
flag of Astana
  

Sectional Chart

Flight Planning
at skyvector.com

Satellite Image

Google Maps Satellite view

 

Copyright © 2004-2017 Karl L. Swartz. All rights reserved.
The Great Circle Mapper name and logo are trademarks of the Great Circle Mapper.
All other trademarks mentioned herein belong to their respective owners.
Please see credits for attibutions and further copyright information.

  Follow gcmap on Facebook Follow gcmap on Twitter Follow gcmap on Google+ GCmap on LinkedIn

hCard Microformat

Geo Microformat